TimePDT,TemperatureF,Dew PointF,Humidity,Sea Level PressureIn,VisibilityMPH,Wind Direction,Wind SpeedMPH,Gust SpeedMPH,PrecipitationIn,Events,Conditions,WindDirDegrees,DateUTC
12:54 AM,52.0,51.1,97,29.85,10.0,South,5.8,-,N/A,,Scattered Clouds,180,2013-09-22 07:54:00
1:27 AM,53.6,51.8,94,29.86,10.0,South,8.1,-,N/A,,Mostly Cloudy,180,2013-09-22 08:27:00
1:54 AM,55.0,52.0,89,29.86,10.0,SSE,6.9,-,N/A,,Overcast,160,2013-09-22 08:54:00
2:34 AM,53.6,51.8,94,29.86,10.0,SSE,4.6,-,N/A,,Overcast,150,2013-09-22 09:34:00
2:51 AM,55.4,51.8,88,29.86,10.0,South,6.9,-,N/A,,Overcast,170,2013-09-22 09:51:00
2:54 AM,55.0,51.1,86,29.86,10.0,SSE,6.9,-,N/A,,Overcast,160,2013-09-22 09:54:00
3:54 AM,55.0,52.0,89,29.86,10.0,SSW,13.8,-,N/A,,Overcast,210,2013-09-22 10:54:00
4:47 AM,53.6,53.6,100,29.85,4.0,SSW,3.5,-,0.02,Rain,Light Rain,210,2013-09-22 11:47:00
4:54 AM,54.0,53.1,97,29.85,5.0,SSW,3.5,-,0.03,Rain,Light Rain,200,2013-09-22 11:54:00
5:16 AM,55.4,53.6,94,29.85,10.0,SSE,4.6,-,0.00,,Overcast,150,2013-09-22 12:16:00
5:54 AM,55.0,52.0,89,29.84,10.0,South,9.2,-,0.00,,Mostly Cloudy,170,2013-09-22 12:54:00
6:54 AM,55.0,51.1,86,29.85,10.0,South,9.2,-,N/A,,Overcast,180,2013-09-22 13:54:00
7:54 AM,55.9,51.1,84,29.84,10.0,South,12.7,-,N/A,,Overcast,180,2013-09-22 14:54:00
8:54 AM,55.9,51.1,84,29.84,10.0,South,15.0,-,N/A,,Overcast,180,2013-09-22 15:54:00
9:54 AM,57.9,50.0,75,29.83,10.0,South,18.4,24.2,N/A,,Overcast,180,2013-09-22 16:54:00
10:54 AM,57.9,51.1,78,29.82,10.0,South,20.7,26.5,N/A,,Overcast,180,2013-09-22 17:54:00
11:54 AM,59.0,50.0,72,29.80,10.0,South,25.3,31.1,0.00,,Overcast,190,2013-09-22 18:54:00
12:33 PM,60.8,51.8,72,29.78,10.0,South,21.9,29.9,N/A,,Overcast,190,2013-09-22 19:33:00
12:54 PM,61.0,51.1,70,29.77,10.0,SSW,26.5,35.7,N/A,,Overcast,200,2013-09-22 19:54:00
1:37 PM,62.6,51.8,68,29.75,10.0,South,26.5,32.2,N/A,,Overcast,190,2013-09-22 20:37:00
1:54 PM,63.0,52.0,67,29.75,10.0,SSW,20.7,35.7,N/A,,Overcast,200,2013-09-22 20:54:00
2:54 PM,59.0,55.0,87,29.76,5.0,SSW,11.5,-,0.03,Rain,Light Rain,210,2013-09-22 21:54:00
3:19 PM,59.0,55.4,88,29.78,5.0,SW,6.9,-,0.00,,Overcast,220,2013-09-22 22:19:00
3:54 PM,59.0,57.0,93,29.79,3.0,SSW,8.1,-,0.02,Rain,Light Rain,200,2013-09-22 22:54:00
4:03 PM,59.0,57.2,94,29.79,2.5,South,9.2,-,0.00,Rain,Light Rain,190,2013-09-22 23:03:00
4:54 PM,59.0,57.0,93,29.81,2.0,South,10.4,-,0.02,Rain,Light Rain,180,2013-09-22 23:54:00
5:15 PM,59.0,57.2,94,29.80,3.0,South,10.4,-,0.01,,Overcast,180,2013-09-23 00:15:00
5:54 PM,59.0,57.0,93,29.83,10.0,SSW,9.2,-,0.01,,Overcast,200,2013-09-23 00:54:00
6:04 PM,60.8,57.2,88,29.82,10.0,SSW,9.2,-,N/A,,Mostly Cloudy,200,2013-09-23 01:04:00
6:54 PM,59.0,55.9,90,29.84,10.0,South,10.4,-,N/A,,Scattered Clouds,190,2013-09-23 01:54:00
7:54 PM,55.9,53.1,90,29.87,10.0,South,11.5,-,N/A,,Scattered Clouds,180,2013-09-23 02:54:00
8:54 PM,55.9,53.1,90,29.90,10.0,South,9.2,-,N/A,,Mostly Cloudy,190,2013-09-23 03:54:00
9:54 PM,57.0,54.0,89,29.90,10.0,South,9.2,-,N/A,,Overcast,180,2013-09-23 04:54:00
10:54 PM,57.0,54.0,89,29.92,10.0,SSE,10.4,-,N/A,,Overcast,160,2013-09-23 05:54:00
11:54 PM,57.0,54.0,89,29.93,10.0,South,9.2,-,N/A,,Overcast,170,2013-09-23 06:54:00